"Pseudo-MPEC" for ZTs0276

Created 2024 Sep 10 15:22:30 UT using Find_Orb

Click here for an explanation of pseudo-MPECs

 
 Astrometry: 
     ZTs0276  C2024 09 01.30369321 50 25.676-16 40 59.02   ~91Cb 16.86RUNEOCPI41
     ZTs0276  C2024 09 01.30404021 50 33.494-16 39 50.40   ~91Cb 16.86RUNEOCPI41
     ZTs0276* C2024 09 01.32048921 56 31.507-15 47 17.29   ~91Bq       UNEOCPI41
     ZTs0276  C2024 09 01.32083621 56 38.776-15 46 13.45   ~91Bq       UNEOCPI41
     ZTs0276  C2024 09 01.32095921 56 41.450-15 45 48.53   ~91Bq 17.68gUNEOCPI41
     ZTs0276  C2024 09 01.32130621 56 48.928-15 44 43.69   ~91Bq 17.68gUNEOCPI41

Station data:
(I41) Palomar Mountain--ZTF  (N33.357336 W116.859780)  US/California.
   Observers B. T. Bolin, Z. T. F. Collaboration. Measurers B. T. Bolin,
   Z.-Y. Lin, F. J. Masci. 1.2-m f/2.4 Schmidt.

Orbital elements:  ZTs0276
   Perigee 2024 Sep 1.42400 +/- 42.2 TT = 10:10:33 (JD 2460554.92400)
Epoch 2024 Sep  1.0 TT = JDT 2460554.5                           AutoNEOCP
q243313.620 +/- 1.68e+7             (J2000 equator)
H   30.39 G 0.15                    Peri.  343.39753 +/- 59
                                    Node   353.40542 +/- 0.31
e  17.4395632 +/- 0.111             Incl.   32.74289 +/- 0.59
From 6 observations 2024 Sept. 1 (25.4 min); mean residual 1".99
Residuals in arcseconds: 
240901 I41  2.1-  1.6-    240901 I41  3.7+  2.9+    240901 I41  .80-  .28+    
240901 I41  2.0+  1.5+    240901 I41  .66-  .72-    240901 I41  2.1-  2.4-    

Ephemerides (geocentric):
Date (UTC) HH   RA             Dec           delta  r     elong  mag " sig PA
---- --------  ------------   ------------  ------ ------ -----  --- --------
2024 09 10 15  04 13 15.541   +31 07 09.90  .02778 1.0124 100.9 25.3  23d 117
2024 09 10 16  04 13 19.519   +31 07 19.27  .02791 1.0125 100.9 25.4  23d 117
2024 09 10 17  04 13 23.457   +31 07 28.53  .02803 1.0125 100.9 25.4  23d 117
2024 09 10 18  04 13 27.357   +31 07 37.69  .02816 1.0125 100.9 25.4  23d 117
2024 09 10 19  04 13 31.218   +31 07 46.75  .02828 1.0125 101.0 25.4  23d 117
2024 09 10 20  04 13 35.041   +31 07 55.70  .02840 1.0126 101.0 25.4  22d 117
2024 09 10 21  04 13 38.826   +31 08 04.56  .02853 1.0126 101.0 25.4  22d 117
2024 09 10 22  04 13 42.575   +31 08 13.32  .02865 1.0126 101.0 25.4  22d 117
2024 09 10 23  04 13 46.287   +31 08 21.98  .02877 1.0127 101.1 25.4  22d 117
2024 09 11 00  04 13 49.963   +31 08 30.55  .02890 1.0127 101.1 25.4  22d 117
2024 09 11 01  04 13 53.603   +31 08 39.02  .02902 1.0127 101.1 25.4  22d 117
2024 09 11 02  04 13 57.208   +31 08 47.40  .02915 1.0127 101.1 25.4  22d 116
2024 09 11 03  04 14 00.778   +31 08 55.69  .02927 1.0128 101.2 25.4  22d 116
2024 09 11 04  04 14 04.314   +31 09 03.89  .02939 1.0128 101.2 25.5  22d 116
2024 09 11 05  04 14 07.816   +31 09 12.00  .02952 1.0128 101.2 25.5  22d 116
2024 09 11 06  04 14 11.284   +31 09 20.03  .02964 1.0129 101.3 25.5  23d 116
2024 09 11 07  04 14 14.719   +31 09 27.96  .02977 1.0129 101.3 25.5  23d 116
2024 09 11 08  04 14 18.121   +31 09 35.81  .02989 1.0129 101.3 25.5  23d 116
2024 09 11 09  04 14 21.491   +31 09 43.58  .03001 1.0130 101.3 25.5  23d 116
2024 09 11 10  04 14 24.829   +31 09 51.26  .03014 1.0130 101.4 25.5  23d 115
2024 09 11 11  04 14 28.136   +31 09 58.86  .03026 1.0130 101.4 25.5  24d 115
2024 09 11 12  04 14 31.411   +31 10 06.38  .03038 1.0130 101.4 25.5  24d 114
2024 09 11 13  04 14 34.655   +31 10 13.82  .03051 1.0131 101.4 25.5  25d 113
2024 09 11 14  04 14 37.869   +31 10 21.18  .03063 1.0131 101.5 25.5  28d 110
2024 09 11 15  04 14 41.052   +31 10 28.46  .03075 1.0131 101.5 25.5  35d 102
2024 09 11 16  04 14 44.206   +31 10 35.66  .03088 1.0132 101.5 25.6  52d  86
2024 09 11 17  04 14 47.330   +31 10 42.79  .03100 1.0132 101.6 25.6  34d 114
2024 09 11 18  04 14 50.424   +31 10 49.84  .03113 1.0132 101.6 25.6  31d 116
2024 09 11 19  04 14 53.491   +31 10 56.82  .03125 1.0133 101.6 25.6  29d 117
2024 09 11 20  04 14 56.528   +31 11 03.72  .03137 1.0133 101.6 25.6  27d 117
2024 09 11 21  04 14 59.537   +31 11 10.55  .03150 1.0133 101.7 25.6  27d 117
2024 09 11 22  04 15 02.519   +31 11 17.31  .03162 1.0134 101.7 25.6  26d 117
2024 09 11 23  04 15 05.473   +31 11 24.00  .03174 1.0134 101.7 25.6  26d 117
2024 09 12 00  04 15 08.399   +31 11 30.62  .03187 1.0134 101.8 25.6  25d 117
2024 09 12 01  04 15 11.299   +31 11 37.17  .03199 1.0135 101.8 25.6  25d 117
2024 09 12 02  04 15 14.172   +31 11 43.65  .03211 1.0135 101.8 25.6  25d 117
2024 09 12 03  04 15 17.018   +31 11 50.06  .03224 1.0135 101.9 25.6  24d 117
2024 09 12 04  04 15 19.838   +31 11 56.41  .03236 1.0136 101.9 25.6  24d 117
2024 09 12 05  04 15 22.633   +31 12 02.69  .03248 1.0136 101.9 25.6  24d 117
2024 09 12 06  04 15 25.402   +31 12 08.90  .03261 1.0136 101.9 25.7  24d 117
2024 09 12 07  04 15 28.145   +31 12 15.05  .03273 1.0137 102.0 25.7  24d 117
2024 09 12 08  04 15 30.864   +31 12 21.13  .03286 1.0137 102.0 25.7  24d 117
2024 09 12 09  04 15 33.558   +31 12 27.16  .03298 1.0137 102.0 25.7  24d 117
2024 09 12 10  04 15 36.227   +31 12 33.12  .03310 1.0138 102.1 25.7  23d 117
2024 09 12 11  04 15 38.872   +31 12 39.01  .03323 1.0138 102.1 25.7  23d 117
2024 09 12 12  04 15 41.493   +31 12 44.85  .03335 1.0139 102.1 25.7  23d 117
2024 09 12 13  04 15 44.091   +31 12 50.63  .03347 1.0139 102.2 25.7  23d 117
2024 09 12 14  04 15 46.664   +31 12 56.34  .03360 1.0139 102.2 25.7  23d 117